Wolf Creek, OR

7:58 PM PST on February 24, 2017 (GMT -0800)
Sexton Summit

Weather History for KSXT - October, 2012

Change the Weather History Date:

Thursday, October 4, 2012

  Actual Average Record
Temperature  
Mean Temperature 60 °F -  
Max Temperature 69 °F 61 °F 81 °F (2014)
Min Temperature 53 °F 45 °F 33 °F (2007)
Degree Days  
Heating Degree Days 4    
Growing Degree Days 10 (Base 50)    
Moisture  
Dew Point 26 °F    
Average Humidity 26    
Maximum Humidity 39    
Minimum Humidity 20    
Precipitation  
Precipitation 0.00 in - - ()
Sea Level Pressure  
Sea Level Pressure 30.00 in    
Wind  
Wind Speed 6 mph (NE)    
Max Wind Speed 13 mph    
Max Gust Speed 18 mph    
Visibility 10 miles    
Events      
Averages and records for this station are not official NWS values.
T = Trace of Precipitation, MM = Missing Value Source: NWS Daily Summary

Daily Weather History Graph

Daily Weather History Graph

Search for Another Location

Airport or City:

Trip Planner

Search our weather history database for the weather conditions in past years. The results will help you decide how hot, cold, wet, or windy it might be!

Date:

Astronomy

Oct. 04, 2012 Rise Set
Actual Time 7:14 AM PDT 6:48 PM PDT
Civil Twilight 6:46 AM PDT 7:16 PM PDT
Nautical Twilight 6:13 AM PDT 7:49 PM PDT
Astronomical Twilight 5:40 AM PDT 8:22 PM PDT
Moon 9:22 PM PDT (10/4) 11:42 AM PDT (10/4)
Length of Visible Light 12h 30m
Length of Day
11h 33m
Waning Gibbous, 81% of the Moon is Illuminated
Oct 4
Waning Gibbous
Oct 8
Last Quarter
Oct 15
New
Oct 21
First Quarter
Oct 29
Full

Hourly Weather History & Observations

Time (PDT) Temp. Dew Point Humidity Pressure Visibility Wind Dir Wind Speed Gust Speed Precip Events Conditions
12:56 AM 61.0 °F 26.1 °F 26% 29.95 in 10.0 mi ESE 5.8 mph - N/A   Clear
1:56 AM 62.1 °F 25.0 °F 24% 29.94 in 10.0 mi ESE 4.6 mph - N/A   Clear
2:56 AM 60.1 °F 24.1 °F 25% 29.94 in 10.0 mi ESE 8.1 mph - N/A   Clear
3:56 AM 57.9 °F 23.0 °F 26% 29.94 in 10.0 mi SE 6.9 mph - N/A   Clear
4:56 AM 57.9 °F 23.0 °F 26% 29.96 in 10.0 mi ESE 4.6 mph - N/A   Clear
6:56 AM 57.9 °F 21.0 °F 24% 29.98 in 10.0 mi ESE 6.9 mph - N/A   Clear
7:56 AM 57.0 °F 19.9 °F 24% 29.99 in 10.0 mi SE 9.2 mph - N/A   Clear
8:56 AM 60.1 °F 23.0 °F 24% 29.99 in 10.0 mi SE 4.6 mph - N/A   Clear
9:56 AM 64.0 °F 28.0 °F 26% 29.99 in 10.0 mi Variable 3.5 mph - N/A   Clear
10:56 AM 66.0 °F 30.9 °F 27% 30.01 in 10.0 mi Calm Calm - 0.00 in   Clear
11:56 AM 66.9 °F 28.0 °F 23% 30.02 in 10.0 mi Calm Calm - N/A   Clear
12:56 PM 66.0 °F 26.1 °F 22% 30.03 in 10.0 mi NNW 3.5 mph - N/A   Clear
1:56 PM 66.9 °F 24.1 °F 20% 30.01 in 10.0 mi NW 3.5 mph - N/A   Clear
2:56 PM 66.9 °F 24.1 °F 20% 30.01 in 10.0 mi Variable 3.5 mph - N/A   Clear
3:56 PM 68.0 °F 26.1 °F 21% 30.01 in 10.0 mi NNW 5.8 mph - N/A   Clear
4:56 PM 66.9 °F 27.0 °F 22% 30.01 in 10.0 mi Calm Calm - N/A   Clear
5:56 PM 63.0 °F 26.1 °F 25% 30.01 in 10.0 mi NNW 5.8 mph - N/A   Clear
6:56 PM 60.1 °F 24.1 °F 25% 30.02 in 10.0 mi NNW 10.4 mph 18.4 mph N/A   Clear
7:56 PM 57.0 °F 28.0 °F 33% 30.04 in 10.0 mi NNW 11.5 mph 18.4 mph N/A   Clear
8:56 PM 55.0 °F 28.0 °F 35% 30.04 in 10.0 mi NNW 12.7 mph - N/A   Clear
9:56 PM 53.1 °F 26.1 °F 35% 30.04 in 10.0 mi NNW 11.5 mph - N/A   Clear
10:56 PM 54.0 °F 27.0 °F 35% 30.04 in 10.0 mi North 6.9 mph - N/A   Clear
11:56 PM 55.9 °F 30.9 °F 39% 30.04 in 10.0 mi Calm Calm - N/A   Clear